Tracking 19419 objects as of 17-Dec-2018
HD Live streaming from Space Station
objects crossing your sky now

COSMOS 2523

Track COSMOS 2523 now!
10-day predictions


NORAD ID: 42986
Int'l Code: 2017-037E
Perigee: 561.6 km
Apogee: 670.2 km
Inclination: 97.8 °
Period: 96.9 minutes
Semi major axis: 6986 km
RCS: Unknown
Launch date: June 23, 2017
Source: Commonwealth of Independent States (former USSR) (CIS)
Launch site: PLESETSK MISSILE AND SPACE COMPLEX (PKMTR)
aabbcc
Your satellite tracking list
Your tracking list is empty




NASA's NSSDC Master Catalog

Two Line Element Set (TLE):
1 42986U 17037E   18350.91868326 -.00000069 +00000-0 -88012-6 0  9999
2 42986 097.8313 053.9745 0077719 305.0172 054.3726 14.86542838061322
Source of the keplerian elements: AFSPC